Regional Weather Roundup
Issued by NWS

Home | Current Version | Previous Version | Graphics & Text | Print | Product List | Glossary On
Versions: 1 2 3 4 5 6 7 8 9 10 11 12 13 14 15 16 17 18 19 20 21 22 23 24 25 26 27 28 29 30 31 32 33 34 35 36 37 38 39 40 41 42 43 44 45 46 47 48 49 50
000
ASUS43 KLMK 250602
RWRKY
KENTUCKY REGIONAL WEATHER ROUNDUP
NATIONAL WEATHER SERVICE LOUISVILLE KY
100 AM EST THU DEC 25 2014

NOTE "FAIR" INDICATES FEW OR NO CLOUDS BELOW 12,000 FEET
WITH NO SIGNIFICANT WEATHER AND/OR OBSTRUCTIONS TO VISIBILITY.

KYZ001>023-026-027-061>063-070>075-250700-
WESTERN AND SOUTH CENTRAL KENTUCKY

CITY           SKY/WX    TMP DP  RH WIND       PRES   REMARKS
PADUCAH        CLOUDY    40  34  79 W10       29.92R WCI  33
HENDERSON      CLOUDY    39  34  81 W7        29.88R WCI  34
OWENSBORO      LGT RAIN  39  36  89 W13       29.88R WCI  31
HOPKINSVILLE   CLOUDY    39  36  87 SW10      29.92R WCI  33
BOWLING GREEN  CLOUDY    41  35  79 SW8       29.90R
GLASGOW        NOT AVBL
$$

KYZ024-025-028>034-038-045-046-053-250700-
NORTH CENTRAL KENTUCKY

CITY           SKY/WX    TMP DP  RH WIND       PRES   REMARKS
LOUISVILLE/SDF MOCLDY    41  34  76 W16       29.82S
LOUISVILLE/LOU CLOUDY    40  34  79 W10G20    29.82S WCI  33
FORT KNOX      CLOUDY    39  35  85 SW13      29.82R WCI  31
$$

KYZ035>037-039>044-047>052-055>060-089>105-250700-
NORTHEAST KENTUCKY

CITY           SKY/WX    TMP DP  RH WIND       PRES   REMARKS
LEXINGTON      CLOUDY    38  34  85 SW10      29.80S WCI  31
COVINGTON      CLOUDY    39  32  76 SW8G17    29.74S WCI  33
FRANKFORT      CLOUDY    39  34  82 SW10      29.80S WCI  32
$$

KYZ054-064>069-076>088-106>120-250700-
SOUTHEAST KENTUCKY

CITY           SKY/WX    TMP DP  RH WIND       PRES   REMARKS
JACKSON        CLOUDY    40  36  86 VRB6      29.81S
LONDON         CLOUDY    41  34  76 SW9       29.85R
SOMERSET       NOT AVBL
MIDDLESBORO    NOT AVBL
MONTICELLO     CLOUDY    40  35  82 SW7       29.90S
$$



USA.gov is the U.S. government's official web portal to all federal, state and local government web resources and services.